Location: Flotzheim
(48.8375°N, 10.8136°E)
Time: 17:22:19
(UTC+00:00)

Meteor 1-21 Rocket - Pass Details

Date: 23 January 2021
Orbit: 834 x 906 km, 81.2° (Epoch: 01 March)

Event Time Altitude Azimuth Distance (km) Brightness Sun altitude
Rises 17:52:59 0° 193° (SSW) 3,369 7.6 -18.3°
Reaches altitude 10° 17:55:23 10° 195° (SSW) 2,439 6.9 -18.7°
Maximum altitude 18:00:54 80° 282° (WNW) 856 4.2 -19.6°
Drops below altitude 10° 18:06:31 10° 10° (N) 2,475 6.5 -20.5°
Sets 18:08:58 0° 12° (NNE) 3,422 7.2 -20.9°
